OPS 4682 DEB, 38442

Orbit data source: Space-Track

OPS 4682 DEB, 38442 is space debris in LEO originally from a launch on Sat, 03 Apr 1965 UTC launched from the Air Force Western Test Range (AFWTR). Debris objects in space refer to the collection of defunct objects orbiting the Earth. Examples of debris include non-operational satellites, rocket bodies, and fragments generated from explosions, collisions, or faulty payload assembly.

Loading next visibility...
Identifier
38442, 1965-027EX
Orbit
LEO
Country
Flag of USUS
Related business
Manufacturer
Unknown
Mission
Spacecraft
Bus & Motor
Unknown
Mass
Unknown
Launch date (UTC)
1965-04-03 (61 years ago)
Launch vehicle
Unknown
Launch site
Air Force Western Test Range (AFWTR)
Object type
Payload
Rocket body
Debris
Shape & HBR
Unknown shape, 0.1 m
Radar Cross Section
Small (<0.1 m²)

Expand to show TLE details & history
Last TLE update: 17 hours ago

TLE from 17 hours ago
0 OPS 4682 DEB
1 38442U 65027EX  26118.91390159 -.00000426  00000-0 -15651-2 0  9990
2 38442  90.2453   4.7201 0033092   7.2620 352.8972 12.93948593581209
Epoch: 2026-04-28T21:56Z
TLE epoch observation values (Epoch: 2026-04-28T21:56:01.097Z)
Latitude
0.00005°
Longitude
178.83314°
Altitude
1,263.593 km
Speed
7.235 km/s
True Right ascension
00h 18m 52s
True Declination
0° 00' 00"
Sunlit
Object was in daylight at epoch
Visualization orbit readout
Latitude
Unknown
Longitude
Unknown
Altitude
Unknown
Speed
Unknown
Apparent Right ascension
Unknown
Apparent Declination
Unknown
Sunlit
N/A
Visualization observer readout
Local Sidereal Time
22:29:52
Azimuth
Unknown
Elevation
Unknown
Doppler factor
Unknown
Orbital elements
Apogee altitude
1,308.377 km
Perigee altitude
1,257.672 km
Semi-major axis
7,661.162 km
Eccentricity
0.00331
Inclination
90.2453°
RAAN
4.7201°
Arg. of periapsis
7.262°
True anomaly
352.85012°
Mean anomaly
352.8972°
Eccentric anomaly
352.87368°
Mean motion
3.23669 °/min
Orbital period
111.22 mins
BSTAR
-0.0015651
Loading maneuver chart data...
Computing Atmospheric mass density...
Loading historical data...
Loading historical data...
Loading historical data...
Loading historical data...
Loading historical data...
Loading historical data...
Loading historical data...

Documentation

Showing up to 5 results
|